AZU4314 SBRF-SBVT

Flight info

Callsign AZU4314
Flight time 2h 9m
Altitude 30000
Route MUDSI UN857 DAGEL
Aircraft A20N/M-SDE2E3FGHIRWXY/LB1

Departure

Time 2026-05-06 05:27
Airport Recife/Guararapes - Gilberto Freyre International Airport (SBRF)

Arrival

Time 2026-05-06 07:37
Airport Eurico de Aguiar Salles International Airport (SBVT)
Time Latitude Longitude Altitude Speed Heading
2026-05-06 04:59 -8.13088 -34.91943 40 ft 0 kts 68°
2026-05-06 05:16 -8.13094 -34.91956 40 ft 3 kts 68°
2026-05-06 05:16 -8.13101 -34.91973 40 ft 3 kts 68°
2026-05-06 05:17 -8.13108 -34.91990 38 ft 3 kts 33°
2026-05-06 05:17 -8.13121 -34.91994 39 ft 0 kts 347°
2026-05-06 05:20 -8.13099 -34.92006 39 ft 7 kts 324°
2026-05-06 05:21 -8.13030 -34.92037 41 ft 15 kts 341°
2026-05-06 05:21 -8.12920 -34.92073 41 ft 17 kts 341°
2026-05-06 05:21 -8.12804 -34.92112 40 ft 18 kts 341°
2026-05-06 05:21 -8.12685 -34.92152 41 ft 18 kts 342°
2026-05-06 05:22 -8.12569 -34.92190 38 ft 17 kts 342°
2026-05-06 05:22 -8.12455 -34.92227 38 ft 17 kts 342°
2026-05-06 05:22 -8.12328 -34.92269 41 ft 20 kts 342°
2026-05-06 05:22 -8.12194 -34.92312 40 ft 20 kts 341°
2026-05-06 05:23 -8.12062 -34.92357 40 ft 20 kts 342°
2026-05-06 05:23 -8.11930 -34.92400 38 ft 20 kts 342°
2026-05-06 05:23 -8.11674 -34.92484 40 ft 19 kts 342°
2026-05-06 05:24 -8.11611 -34.92511 39 ft 0 kts 327°
2026-05-06 05:25 -8.11601 -34.92518 40 ft 8 kts 323°
2026-05-06 05:25 -8.11526 -34.92580 40 ft 14 kts 321°
2026-05-06 05:25 -8.11451 -34.92644 40 ft 13 kts 303°
2026-05-06 05:25 -8.11498 -34.92688 40 ft 12 kts 179°
2026-05-06 05:26 -8.11550 -34.92675 40 ft 0 kts 162°
2026-05-06 05:26 -8.11551 -34.92675 40 ft 0 kts 162°
2026-05-06 05:26 -8.11554 -34.92674 40 ft 6 kts 162°
2026-05-06 05:26 -8.11763 -34.92604 39 ft 65 kts 161°
2026-05-06 05:27 -8.12400 -34.92396 41 ft 125 kts 162°
2026-05-06 05:27 -8.13348 -34.92083 190 ft 154 kts 160°
2026-05-06 05:27 -8.14388 -34.91743 688 ft 156 kts 159°
2026-05-06 05:27 -8.15378 -34.91397 1386 ft 151 kts 160°
2026-05-06 05:28 -8.16434 -34.91020 1680 ft 174 kts 160°
2026-05-06 05:28 -8.17693 -34.90574 1891 ft 211 kts 161°
2026-05-06 05:28 -8.19176 -34.90057 2348 ft 235 kts 160°
2026-05-06 05:28 -8.20773 -34.89584 3152 ft 243 kts 172°
2026-05-06 05:29 -8.22462 -34.89780 4045 ft 249 kts 189°
2026-05-06 05:29 -8.24160 -34.90195 4924 ft 253 kts 191°
2026-05-06 05:29 -8.25847 -34.90628 5774 ft 256 kts 191°
2026-05-06 05:29 -8.27587 -34.91057 6616 ft 259 kts 190°
2026-05-06 05:30 -8.29364 -34.91476 7363 ft 266 kts 189°
2026-05-06 05:30 -8.31192 -34.91895 8104 ft 272 kts 188°
2026-05-06 05:30 -8.33058 -34.92316 8856 ft 278 kts 187°
2026-05-06 05:30 -8.34971 -34.92745 9584 ft 285 kts 187°
2026-05-06 05:31 -8.36924 -34.93181 10232 ft 293 kts 187°
2026-05-06 05:31 -8.38985 -34.93636 10527 ft 313 kts 187°
2026-05-06 05:31 -8.41173 -34.94121 10883 ft 328 kts 188°
2026-05-06 05:31 -8.42693 -34.94460 11252 ft 334 kts 188°
2026-05-06 05:32 -8.45750 -34.95027 12048 ft 340 kts 185°
2026-05-06 05:32 -8.47342 -34.95252 12473 ft 344 kts 184°
2026-05-06 05:32 -8.50508 -34.95677 13347 ft 350 kts 184°
2026-05-06 05:32 -8.52936 -34.95999 13984 ft 355 kts 184°
2026-05-06 05:33 -8.55399 -34.96327 14611 ft 359 kts 185°
2026-05-06 05:33 -8.57078 -34.96551 15070 ft 360 kts 184°
2026-05-06 05:33 -8.59570 -34.96884 15760 ft 363 kts 185°
2026-05-06 05:33 -8.62085 -34.97221 16404 ft 366 kts 186°
2026-05-06 05:34 -8.64622 -34.97561 17052 ft 369 kts 186°
2026-05-06 05:34 -8.67178 -34.97904 17683 ft 372 kts 186°
2026-05-06 05:34 -8.69753 -34.98249 18306 ft 374 kts 187°
2026-05-06 05:34 -8.72345 -34.98596 18795 ft 378 kts 187°
2026-05-06 05:35 -8.74973 -34.98949 19248 ft 383 kts 187°
2026-05-06 05:35 -8.77631 -34.99305 19708 ft 387 kts 187°
2026-05-06 05:35 -8.80283 -34.99661 20161 ft 392 kts 187°
2026-05-06 05:35 -8.83036 -35.00030 20644 ft 396 kts 188°
2026-05-06 05:36 -8.85786 -35.00399 21125 ft 400 kts 188°
2026-05-06 05:36 -8.88521 -35.00766 21632 ft 404 kts 188°
2026-05-06 05:36 -8.91311 -35.01141 22182 ft 406 kts 188°
2026-05-06 05:36 -8.94135 -35.01520 22630 ft 412 kts 188°
2026-05-06 05:37 -8.96987 -35.01902 23147 ft 416 kts 188°
2026-05-06 05:37 -8.99868 -35.02289 23651 ft 419 kts 188°
2026-05-06 05:37 -9.02767 -35.02702 24052 ft 422 kts 191°
2026-05-06 05:37 -9.05612 -35.03418 24542 ft 422 kts 200°
2026-05-06 05:38 -9.08313 -35.04602 24949 ft 424 kts 208°
2026-05-06 05:38 -9.10926 -35.05987 25402 ft 425 kts 211°
2026-05-06 05:38 -9.13498 -35.07463 25862 ft 426 kts 212°
2026-05-06 05:38 -9.16062 -35.08983 26285 ft 428 kts 213°
2026-05-06 05:39 -9.18631 -35.10515 26707 ft 430 kts 213°
2026-05-06 05:39 -9.21219 -35.12052 27109 ft 432 kts 212°
2026-05-06 05:39 -9.23825 -35.13585 27515 ft 434 kts 212°
2026-05-06 05:39 -9.26449 -35.15117 27895 ft 437 kts 212°
2026-05-06 05:40 -9.29089 -35.16649 28286 ft 439 kts 212°
2026-05-06 05:40 -9.31748 -35.18188 28622 ft 442 kts 212°
2026-05-06 05:40 -9.34427 -35.19737 28989 ft 444 kts 212°
2026-05-06 05:40 -9.37117 -35.21293 29352 ft 446 kts 212°
2026-05-06 05:41 -9.39819 -35.22855 29722 ft 449 kts 212°
2026-05-06 05:41 -9.42538 -35.24429 29969 ft 451 kts 212°
2026-05-06 05:41 -9.47984 -35.27582 29995 ft 451 kts 212°
2026-05-06 05:42 -9.53426 -35.30734 29995 ft 451 kts 212°
2026-05-06 05:42 -9.58873 -35.33891 29995 ft 451 kts 212°
2026-05-06 05:43 -9.64312 -35.37045 29993 ft 451 kts 212°
2026-05-06 05:43 -9.69753 -35.40201 29993 ft 450 kts 212°
2026-05-06 05:44 -9.75193 -35.43359 29994 ft 450 kts 212°
2026-05-06 05:44 -9.80631 -35.46515 29996 ft 450 kts 212°
2026-05-06 05:45 -9.86066 -35.49672 29998 ft 450 kts 212°
2026-05-06 05:45 -9.91504 -35.52831 29994 ft 450 kts 212°
2026-05-06 05:46 -9.96936 -35.55988 29999 ft 450 kts 212°
2026-05-06 05:46 -10.02368 -35.59147 29998 ft 450 kts 212°
2026-05-06 05:47 -10.07797 -35.62304 29997 ft 450 kts 212°
2026-05-06 05:47 -10.13227 -35.65464 29998 ft 450 kts 212°
2026-05-06 05:48 -10.18656 -35.68624 29999 ft 450 kts 213°
2026-05-06 05:48 -10.24046 -35.71763 30001 ft 450 kts 213°
2026-05-06 05:49 -10.29506 -35.74944 30000 ft 449 kts 213°
2026-05-06 05:49 -10.34888 -35.78080 30003 ft 448 kts 213°
2026-05-06 05:50 -10.40296 -35.81233 30001 ft 448 kts 213°
2026-05-06 05:50 -10.45705 -35.84389 30003 ft 448 kts 213°
2026-05-06 05:51 -10.51110 -35.87543 30003 ft 448 kts 213°
2026-05-06 05:51 -10.56520 -35.90702 30002 ft 448 kts 213°
2026-05-06 05:52 -10.61931 -35.93861 30001 ft 448 kts 213°
2026-05-06 05:52 -10.67340 -35.97021 30002 ft 448 kts 213°
2026-05-06 05:53 -10.72748 -36.00182 29998 ft 448 kts 213°
2026-05-06 05:53 -10.78151 -36.03342 30001 ft 448 kts 213°
2026-05-06 05:54 -10.83552 -36.06501 30007 ft 448 kts 213°
2026-05-06 05:54 -10.88952 -36.09662 30004 ft 448 kts 213°
2026-05-06 05:55 -10.94352 -36.12823 30002 ft 448 kts 213°
2026-05-06 05:55 -10.99754 -36.15987 30010 ft 448 kts 213°
2026-05-06 05:56 -11.05153 -36.19151 30010 ft 448 kts 213°
2026-05-06 05:56 -11.10553 -36.22317 30006 ft 448 kts 213°
2026-05-06 05:57 -11.16014 -36.25391 30010 ft 449 kts 210°
2026-05-06 05:57 -11.21569 -36.28290 30008 ft 448 kts 210°
2026-05-06 05:58 -11.27130 -36.31161 30008 ft 448 kts 210°
2026-05-06 05:58 -11.32680 -36.34052 30009 ft 448 kts 210°
2026-05-06 05:59 -11.38224 -36.36956 30009 ft 448 kts 210°
2026-05-06 05:59 -11.43766 -36.39866 30016 ft 448 kts 210°
2026-05-06 06:00 -11.49304 -36.42774 30006 ft 448 kts 210°
2026-05-06 06:00 -11.54849 -36.45686 30009 ft 448 kts 210°
2026-05-06 06:01 -11.60392 -36.48599 30009 ft 448 kts 210°
2026-05-06 06:01 -11.65935 -36.51512 30013 ft 448 kts 210°
2026-05-06 06:02 -11.71481 -36.54428 30014 ft 448 kts 210°
2026-05-06 06:02 -11.77020 -36.57342 30016 ft 448 kts 210°
2026-05-06 06:03 -11.82527 -36.60241 30006 ft 448 kts 210°
2026-05-06 06:03 -11.88076 -36.63163 30017 ft 449 kts 210°
2026-05-06 06:04 -11.93621 -36.66084 30013 ft 449 kts 210°
2026-05-06 06:04 -11.99172 -36.69009 30016 ft 449 kts 210°
2026-05-06 06:05 -12.04716 -36.71932 30012 ft 449 kts 210°
2026-05-06 06:05 -12.10263 -36.74858 30006 ft 448 kts 210°
2026-05-06 06:06 -12.15796 -36.77779 30018 ft 447 kts 210°
2026-05-06 06:06 -12.21328 -36.80701 30014 ft 447 kts 210°
2026-05-06 06:07 -12.26854 -36.83620 30021 ft 447 kts 210°
2026-05-06 06:07 -12.32381 -36.86542 30009 ft 447 kts 210°
2026-05-06 06:08 -12.37911 -36.89466 30013 ft 447 kts 210°
2026-05-06 06:08 -12.43437 -36.92390 30019 ft 447 kts 210°
2026-05-06 06:09 -12.48961 -36.95314 30015 ft 447 kts 210°
2026-05-06 06:09 -12.54484 -36.98239 30016 ft 447 kts 210°
2026-05-06 06:10 -12.60006 -37.01165 30030 ft 447 kts 210°
2026-05-06 06:10 -12.65488 -37.04070 30017 ft 446 kts 210°
2026-05-06 06:11 -12.71036 -37.07013 30034 ft 446 kts 210°
2026-05-06 06:11 -12.76548 -37.09938 30022 ft 446 kts 210°
2026-05-06 06:12 -12.82056 -37.12862 30021 ft 446 kts 210°
2026-05-06 06:12 -12.87567 -37.15789 30030 ft 446 kts 210°
2026-05-06 06:13 -12.93042 -37.18699 30026 ft 446 kts 210°
2026-05-06 06:13 -12.98554 -37.21630 30026 ft 446 kts 210°
2026-05-06 06:14 -13.04066 -37.24562 30028 ft 447 kts 210°
2026-05-06 06:14 -13.09588 -37.27501 30029 ft 447 kts 210°
2026-05-06 06:15 -13.15114 -37.30443 30035 ft 447 kts 211°
2026-05-06 06:15 -13.20638 -37.33386 30032 ft 447 kts 211°
2026-05-06 06:16 -13.26164 -37.36332 30032 ft 447 kts 211°
2026-05-06 06:16 -13.31683 -37.39275 30031 ft 447 kts 211°
2026-05-06 06:17 -13.37207 -37.42223 30031 ft 447 kts 211°
2026-05-06 06:17 -13.42722 -37.45167 30031 ft 446 kts 211°
2026-05-06 06:18 -13.48229 -37.48108 30035 ft 445 kts 211°
2026-05-06 06:18 -13.53710 -37.51037 30034 ft 444 kts 211°
2026-05-06 06:19 -13.59183 -37.53964 30034 ft 443 kts 211°
2026-05-06 06:19 -13.64650 -37.56890 30034 ft 443 kts 211°
2026-05-06 06:20 -13.70106 -37.59810 30034 ft 440 kts 210°
2026-05-06 06:20 -13.74613 -37.62223 30034 ft 439 kts 210°
2026-05-06 06:21 -13.80908 -37.65597 30037 ft 439 kts 210°
2026-05-06 06:21 -13.85442 -37.68028 30037 ft 439 kts 210°
2026-05-06 06:22 -13.90855 -37.70932 30040 ft 439 kts 210°
2026-05-06 06:22 -13.96257 -37.73830 30039 ft 436 kts 210°
2026-05-06 06:23 -14.01631 -37.76716 30040 ft 436 kts 210°
2026-05-06 06:23 -14.07003 -37.79602 30040 ft 435 kts 210°
2026-05-06 06:24 -14.12375 -37.82490 30045 ft 435 kts 210°
2026-05-06 06:24 -14.17709 -37.85359 30045 ft 435 kts 210°
2026-05-06 06:25 -14.23073 -37.88245 30045 ft 435 kts 210°
2026-05-06 06:26 -14.31117 -37.92576 30045 ft 435 kts 210°
2026-05-06 06:26 -14.36480 -37.95465 30042 ft 435 kts 210°
2026-05-06 06:27 -14.41835 -37.98352 30045 ft 434 kts 210°
2026-05-06 06:27 -14.47191 -38.01241 30048 ft 434 kts 210°
2026-05-06 06:28 -14.52545 -38.04131 30050 ft 434 kts 210°
2026-05-06 06:28 -14.57895 -38.07020 30051 ft 434 kts 210°
2026-05-06 06:29 -14.63250 -38.09913 30053 ft 434 kts 210°
2026-05-06 06:29 -14.68601 -38.12805 30053 ft 434 kts 210°
2026-05-06 06:30 -14.73952 -38.15700 30056 ft 434 kts 210°
2026-05-06 06:30 -14.79301 -38.18595 30056 ft 434 kts 210°
2026-05-06 06:31 -14.84641 -38.21486 30056 ft 433 kts 210°
2026-05-06 06:31 -14.89982 -38.24380 30061 ft 433 kts 210°
2026-05-06 06:32 -14.95319 -38.27273 30059 ft 433 kts 210°
2026-05-06 06:32 -15.00656 -38.30168 30059 ft 433 kts 210°
2026-05-06 06:33 -15.05991 -38.33064 30061 ft 433 kts 210°
2026-05-06 06:33 -15.11325 -38.35962 30061 ft 433 kts 210°
2026-05-06 06:34 -15.16660 -38.38861 30064 ft 433 kts 210°
2026-05-06 06:34 -15.21956 -38.41741 30067 ft 433 kts 210°
2026-05-06 06:35 -15.27288 -38.44643 30067 ft 433 kts 210°
2026-05-06 06:35 -15.32617 -38.47545 30070 ft 432 kts 210°
2026-05-06 06:36 -15.37943 -38.50446 30070 ft 433 kts 210°
2026-05-06 06:36 -15.43268 -38.53349 30072 ft 433 kts 210°
2026-05-06 06:37 -15.48594 -38.56253 30075 ft 432 kts 210°
2026-05-06 06:37 -15.53913 -38.59156 30075 ft 432 kts 210°
2026-05-06 06:38 -15.59234 -38.62061 30075 ft 432 kts 210°
2026-05-06 06:38 -15.64551 -38.64967 30074 ft 432 kts 210°
2026-05-06 06:39 -15.69869 -38.67874 30088 ft 432 kts 210°
2026-05-06 06:39 -15.75170 -38.70773 30079 ft 430 kts 210°
2026-05-06 06:40 -15.80468 -38.73673 30077 ft 430 kts 210°
2026-05-06 06:40 -15.85763 -38.76573 30081 ft 430 kts 210°
2026-05-06 06:41 -15.91059 -38.79476 30077 ft 430 kts 210°
2026-05-06 06:41 -15.96352 -38.82378 30093 ft 430 kts 210°
2026-05-06 06:42 -16.01650 -38.85284 30085 ft 431 kts 210°
2026-05-06 06:42 -16.06909 -38.88172 30083 ft 431 kts 210°
2026-05-06 06:43 -16.12206 -38.91081 30081 ft 431 kts 210°
2026-05-06 06:43 -16.17503 -38.93993 30096 ft 430 kts 210°
2026-05-06 06:44 -16.22799 -38.96905 30108 ft 430 kts 209°
2026-05-06 06:44 -16.28122 -38.99762 30115 ft 431 kts 208°
2026-05-06 06:45 -16.33470 -39.02586 30125 ft 431 kts 208°
2026-05-06 06:45 -16.38810 -39.05406 30129 ft 430 kts 208°
2026-05-06 06:46 -16.44145 -39.08237 30134 ft 430 kts 209°
2026-05-06 06:46 -16.49436 -39.11162 30130 ft 430 kts 210°
2026-05-06 06:47 -16.54702 -39.14137 30123 ft 430 kts 210°
2026-05-06 06:47 -16.59949 -39.17100 30117 ft 429 kts 210°
2026-05-06 06:48 -16.65203 -39.20058 30109 ft 429 kts 210°
2026-05-06 06:48 -16.70453 -39.23011 30105 ft 429 kts 210°
2026-05-06 06:49 -16.75713 -39.25970 30098 ft 429 kts 210°
2026-05-06 06:49 -16.80968 -39.28929 30097 ft 429 kts 210°
2026-05-06 06:50 -16.86225 -39.31891 30099 ft 429 kts 210°
2026-05-06 06:50 -16.91440 -39.34832 30099 ft 429 kts 210°
2026-05-06 06:51 -16.96684 -39.37791 30099 ft 428 kts 210°
2026-05-06 06:51 -17.01918 -39.40746 30105 ft 428 kts 210°
2026-05-06 06:52 -17.07152 -39.43702 30101 ft 427 kts 210°
2026-05-06 06:52 -17.12384 -39.46659 30101 ft 427 kts 210°
2026-05-06 06:53 -17.17614 -39.49618 30110 ft 427 kts 210°
2026-05-06 06:53 -17.22842 -39.52577 30107 ft 427 kts 210°
2026-05-06 06:54 -17.28072 -39.55540 30107 ft 427 kts 210°
2026-05-06 06:54 -17.33300 -39.58503 30111 ft 427 kts 210°
2026-05-06 06:55 -17.38516 -39.61461 30110 ft 426 kts 210°
2026-05-06 06:55 -17.43721 -39.64415 30110 ft 426 kts 210°
2026-05-06 06:56 -17.48920 -39.67367 30028 ft 421 kts 210°
2026-05-06 06:56 -17.51430 -39.68793 29770 ft 410 kts 210°
2026-05-06 06:56 -17.53910 -39.70201 29508 ft 401 kts 210°
2026-05-06 06:56 -17.56339 -39.71582 29245 ft 395 kts 210°
2026-05-06 06:57 -17.58748 -39.72952 28983 ft 394 kts 210°
2026-05-06 06:57 -17.61153 -39.74322 28720 ft 393 kts 210°
2026-05-06 06:57 -17.63556 -39.75689 28466 ft 392 kts 209°
2026-05-06 06:57 -17.65951 -39.77053 28213 ft 391 kts 209°
2026-05-06 06:58 -17.68335 -39.78410 27958 ft 390 kts 209°
2026-05-06 06:58 -17.70713 -39.79765 27708 ft 388 kts 209°
2026-05-06 06:58 -17.73083 -39.81115 27452 ft 387 kts 209°
2026-05-06 06:58 -17.75439 -39.82458 27193 ft 384 kts 209°
2026-05-06 06:59 -17.77782 -39.83794 26968 ft 383 kts 209°
2026-05-06 06:59 -17.80117 -39.85125 26715 ft 381 kts 209°
2026-05-06 06:59 -17.82442 -39.86452 26471 ft 380 kts 209°
2026-05-06 06:59 -17.84760 -39.87774 26234 ft 379 kts 208°
2026-05-06 07:00 -17.87072 -39.89094 25997 ft 378 kts 208°
2026-05-06 07:00 -17.89379 -39.90412 25759 ft 377 kts 208°
2026-05-06 07:00 -17.91681 -39.91726 25517 ft 376 kts 208°
2026-05-06 07:00 -17.93976 -39.93037 25294 ft 375 kts 208°
2026-05-06 07:01 -17.96263 -39.94344 25073 ft 374 kts 208°
2026-05-06 07:01 -17.98556 -39.95629 24841 ft 373 kts 206°
2026-05-06 07:01 -18.00950 -39.96660 24615 ft 372 kts 197°
2026-05-06 07:01 -18.03464 -39.97279 24391 ft 371 kts 190°
2026-05-06 07:02 -18.05973 -39.97688 24171 ft 370 kts 188°
2026-05-06 07:02 -18.08515 -39.98064 23950 ft 369 kts 188°
2026-05-06 07:02 -18.11054 -39.98436 23731 ft 368 kts 188°
2026-05-06 07:02 -18.13582 -39.98808 23477 ft 367 kts 188°
2026-05-06 07:03 -18.16109 -39.99184 23218 ft 366 kts 188°
2026-05-06 07:03 -18.18627 -39.99559 22958 ft 365 kts 188°
2026-05-06 07:03 -18.21138 -39.99935 22701 ft 364 kts 188°
2026-05-06 07:03 -18.23642 -40.00310 22446 ft 363 kts 188°
2026-05-06 07:04 -18.26140 -40.00685 22191 ft 362 kts 188°
2026-05-06 07:04 -18.28633 -40.01059 21941 ft 361 kts 188°
2026-05-06 07:04 -18.31120 -40.01433 21695 ft 361 kts 188°
2026-05-06 07:04 -18.33603 -40.01806 21445 ft 360 kts 188°
2026-05-06 07:05 -18.36079 -40.02178 21203 ft 359 kts 187°
2026-05-06 07:05 -18.38550 -40.02549 20962 ft 358 kts 187°
2026-05-06 07:05 -18.41012 -40.02920 20719 ft 358 kts 187°
2026-05-06 07:05 -18.43474 -40.03290 20482 ft 357 kts 187°
2026-05-06 07:06 -18.45929 -40.03659 20245 ft 356 kts 187°
2026-05-06 07:06 -18.48377 -40.04028 20016 ft 355 kts 187°
2026-05-06 07:06 -18.50820 -40.04396 19781 ft 355 kts 187°
2026-05-06 07:06 -18.53258 -40.04763 19551 ft 354 kts 187°
2026-05-06 07:07 -18.55695 -40.05130 19322 ft 353 kts 187°
2026-05-06 07:07 -18.58129 -40.05497 19094 ft 353 kts 187°
2026-05-06 07:07 -18.60559 -40.05863 18869 ft 352 kts 187°
2026-05-06 07:07 -18.62982 -40.06228 18645 ft 351 kts 187°
2026-05-06 07:08 -18.65399 -40.06593 18416 ft 350 kts 187°
2026-05-06 07:08 -18.67808 -40.06956 18158 ft 349 kts 187°
2026-05-06 07:08 -18.70212 -40.07319 17901 ft 348 kts 187°
2026-05-06 07:08 -18.72606 -40.07681 17647 ft 347 kts 187°
2026-05-06 07:09 -18.74990 -40.08040 17396 ft 346 kts 187°
2026-05-06 07:09 -18.77371 -40.08400 17147 ft 345 kts 187°
2026-05-06 07:09 -18.79739 -40.08758 16906 ft 344 kts 187°
2026-05-06 07:09 -18.82104 -40.09115 16651 ft 342 kts 187°
2026-05-06 07:10 -18.84455 -40.09470 16405 ft 341 kts 187°
2026-05-06 07:10 -18.86806 -40.09826 16166 ft 340 kts 187°
2026-05-06 07:10 -18.89113 -40.10175 15923 ft 339 kts 187°
2026-05-06 07:10 -18.91443 -40.10527 15674 ft 338 kts 187°
2026-05-06 07:11 -18.93768 -40.10879 15436 ft 337 kts 187°
2026-05-06 07:11 -18.96085 -40.11230 15220 ft 336 kts 187°
2026-05-06 07:11 -18.98393 -40.11580 14980 ft 335 kts 187°
2026-05-06 07:11 -19.00696 -40.11929 14748 ft 334 kts 187°
2026-05-06 07:12 -19.02990 -40.12276 14521 ft 333 kts 187°
2026-05-06 07:12 -19.05278 -40.12623 14291 ft 332 kts 187°
2026-05-06 07:12 -19.07559 -40.12968 14064 ft 330 kts 186°
2026-05-06 07:12 -19.09832 -40.13312 13825 ft 329 kts 187°
2026-05-06 07:13 -19.12097 -40.13655 13565 ft 328 kts 187°
2026-05-06 07:13 -19.14349 -40.13997 13312 ft 326 kts 187°
2026-05-06 07:13 -19.16593 -40.14337 13060 ft 325 kts 186°
2026-05-06 07:13 -19.18826 -40.14675 12809 ft 323 kts 186°
2026-05-06 07:14 -19.21046 -40.15012 12561 ft 322 kts 186°
2026-05-06 07:14 -19.23255 -40.15347 12318 ft 320 kts 186°
2026-05-06 07:14 -19.25458 -40.15681 12073 ft 319 kts 186°
2026-05-06 07:14 -19.26908 -40.15901 11918 ft 318 kts 186°
2026-05-06 07:15 -19.29094 -40.16233 11671 ft 316 kts 186°
2026-05-06 07:15 -19.31266 -40.16563 11432 ft 315 kts 186°
2026-05-06 07:15 -19.33432 -40.16892 11197 ft 314 kts 186°
2026-05-06 07:15 -19.35585 -40.17218 10961 ft 312 kts 186°
2026-05-06 07:16 -19.37731 -40.17544 10725 ft 311 kts 187°
2026-05-06 07:16 -19.39866 -40.17869 10493 ft 310 kts 187°
2026-05-06 07:16 -19.41995 -40.18192 10261 ft 308 kts 187°
2026-05-06 07:16 -19.44111 -40.18514 10030 ft 305 kts 187°
2026-05-06 07:17 -19.46181 -40.18830 9782 ft 295 kts 186°
2026-05-06 07:17 -19.48187 -40.19135 9530 ft 289 kts 186°
2026-05-06 07:17 -19.50176 -40.19438 9275 ft 288 kts 186°
2026-05-06 07:17 -19.52160 -40.19739 9034 ft 287 kts 186°
2026-05-06 07:18 -19.54133 -40.20039 8791 ft 286 kts 186°
2026-05-06 07:18 -19.56098 -40.20339 8540 ft 285 kts 186°
2026-05-06 07:18 -19.58056 -40.20637 8296 ft 283 kts 186°
2026-05-06 07:18 -19.60003 -40.20933 8129 ft 282 kts 186°
2026-05-06 07:19 -19.61943 -40.21229 7997 ft 281 kts 186°
2026-05-06 07:19 -19.63878 -40.21523 7979 ft 281 kts 186°
2026-05-06 07:19 -19.65816 -40.21818 7990 ft 281 kts 186°
2026-05-06 07:19 -19.67755 -40.22114 7983 ft 281 kts 186°
2026-05-06 07:20 -19.69692 -40.22410 7987 ft 281 kts 186°
2026-05-06 07:20 -19.71628 -40.22705 7990 ft 281 kts 186°
2026-05-06 07:20 -19.73566 -40.23001 7992 ft 281 kts 186°
2026-05-06 07:20 -19.75500 -40.23296 7994 ft 281 kts 186°
2026-05-06 07:21 -19.77438 -40.23592 7993 ft 281 kts 186°
2026-05-06 07:21 -19.79375 -40.23888 7994 ft 281 kts 186°
2026-05-06 07:21 -19.81286 -40.24180 7982 ft 281 kts 186°
2026-05-06 07:21 -19.83223 -40.24477 7995 ft 281 kts 186°
2026-05-06 07:22 -19.85162 -40.24773 7997 ft 281 kts 186°
2026-05-06 07:22 -19.87098 -40.25070 7991 ft 281 kts 186°
2026-05-06 07:22 -19.89034 -40.25366 7985 ft 281 kts 186°
2026-05-06 07:22 -19.90972 -40.25663 7991 ft 282 kts 186°
2026-05-06 07:23 -19.92915 -40.25961 7995 ft 282 kts 186°
2026-05-06 07:23 -19.94857 -40.26258 7997 ft 282 kts 186°
2026-05-06 07:23 -19.96798 -40.26555 8002 ft 282 kts 186°
2026-05-06 07:23 -19.98738 -40.26852 7999 ft 282 kts 186°
2026-05-06 07:24 -20.00678 -40.27150 7997 ft 281 kts 185°
2026-05-06 07:24 -20.02617 -40.27448 8000 ft 282 kts 186°
2026-05-06 07:24 -20.04552 -40.27778 8001 ft 282 kts 190°
2026-05-06 07:24 -20.06406 -40.28484 7998 ft 285 kts 205°
2026-05-06 07:25 -20.08134 -40.29528 8000 ft 287 kts 209°
2026-05-06 07:25 -20.09831 -40.30647 7997 ft 287 kts 210°
2026-05-06 07:25 -20.11524 -40.31774 8002 ft 287 kts 210°
2026-05-06 07:25 -20.13215 -40.32897 8000 ft 287 kts 210°
2026-05-06 07:26 -20.14907 -40.34018 7997 ft 286 kts 210°
2026-05-06 07:26 -20.16601 -40.35137 7997 ft 286 kts 210°
2026-05-06 07:26 -20.18294 -40.36255 8004 ft 287 kts 210°
2026-05-06 07:26 -20.19988 -40.37372 7924 ft 286 kts 210°
2026-05-06 07:27 -20.21683 -40.38489 7691 ft 286 kts 210°
2026-05-06 07:27 -20.23369 -40.39601 7467 ft 285 kts 210°
2026-05-06 07:27 -20.25051 -40.40711 7230 ft 284 kts 210°
2026-05-06 07:27 -20.26727 -40.41818 6990 ft 283 kts 209°
2026-05-06 07:28 -20.28397 -40.42920 6763 ft 282 kts 209°
2026-05-06 07:28 -20.30064 -40.44020 6541 ft 281 kts 209°
2026-05-06 07:28 -20.33484 -40.45938 6026 ft 275 kts 191°
2026-05-06 07:29 -20.35359 -40.45995 5787 ft 268 kts 166°
2026-05-06 07:29 -20.37037 -40.45208 5543 ft 263 kts 142°
2026-05-06 07:29 -20.38348 -40.43861 5302 ft 262 kts 131°
2026-05-06 07:29 -20.39526 -40.42385 5056 ft 261 kts 129°
2026-05-06 07:30 -20.40679 -40.40899 4883 ft 259 kts 129°
2026-05-06 07:30 -20.41832 -40.39421 4761 ft 260 kts 129°
2026-05-06 07:30 -20.42991 -40.37942 4626 ft 260 kts 129°
2026-05-06 07:30 -20.43956 -40.36362 4477 ft 249 kts 113°
2026-05-06 07:31 -20.44314 -40.34632 4327 ft 239 kts 92°
2026-05-06 07:31 -20.44199 -40.32904 4211 ft 228 kts 84°
2026-05-06 07:31 -20.43985 -40.31295 4132 ft 210 kts 83°
2026-05-06 07:31 -20.43774 -40.29811 4010 ft 194 kts 83°
2026-05-06 07:32 -20.43455 -40.28467 3880 ft 182 kts 71°
2026-05-06 07:32 -20.42844 -40.27340 3774 ft 171 kts 54°
2026-05-06 07:32 -20.41991 -40.26526 3647 ft 160 kts 36°
2026-05-06 07:32 -20.41004 -40.26048 3397 ft 154 kts 18°
2026-05-06 07:33 -20.39939 -40.25899 3057 ft 155 kts
2026-05-06 07:33 -20.38866 -40.26001 2728 ft 154 kts 354°
2026-05-06 07:33 -20.37804 -40.26162 2381 ft 154 kts 352°
2026-05-06 07:33 -20.36744 -40.26329 2063 ft 153 kts 352°
2026-05-06 07:34 -20.35699 -40.26490 1845 ft 149 kts 352°
2026-05-06 07:34 -20.34685 -40.26643 1778 ft 147 kts 351°
2026-05-06 07:34 -20.33674 -40.26796 1619 ft 147 kts 351°
2026-05-06 07:34 -20.32663 -40.26947 1392 ft 146 kts 351°
2026-05-06 07:35 -20.31667 -40.27095 1160 ft 143 kts 350°
2026-05-06 07:35 -20.30688 -40.27240 956 ft 141 kts 351°
2026-05-06 07:35 -20.29726 -40.27383 752 ft 138 kts 351°
2026-05-06 07:35 -20.28783 -40.27522 565 ft 136 kts 351°
2026-05-06 07:36 -20.27850 -40.27661 377 ft 134 kts 351°
2026-05-06 07:36 -20.26931 -40.27808 161 ft 133 kts 348°
2026-05-06 07:36 -20.26040 -40.27925 36 ft 122 kts 349°
2026-05-06 07:36 -20.25389 -40.28026 28 ft 54 kts 355°
2026-05-06 07:37 -20.25216 -40.28047 25 ft 14 kts 346°
2026-05-06 07:37 -20.25114 -40.28074 22 ft 15 kts 336°
2026-05-06 07:37 -20.25013 -40.28088 22 ft 16 kts 358°
2026-05-06 07:37 -20.24978 -40.28118 21 ft 4 kts 278°
2026-05-06 07:38 -20.25005 -40.28159 22 ft 13 kts 219°
2026-05-06 07:38 -20.25083 -40.28212 21 ft 14 kts 213°
2026-05-06 07:38 -20.25172 -40.28232 22 ft 13 kts 174°
2026-05-06 07:38 -20.25261 -40.28222 22 ft 5 kts 173°
2026-05-06 07:39 -20.25262 -40.28222 22 ft 0 kts 173°
2026-05-06 07:40 -20.25288 -40.28219 25 ft 8 kts 173°
2026-05-06 07:40 -20.25369 -40.28208 26 ft 14 kts 173°
2026-05-06 07:40 -20.25464 -40.28195 26 ft 13 kts 171°
2026-05-06 07:40 -20.25554 -40.28179 27 ft 13 kts 171°
2026-05-06 07:41 -20.25681 -40.28159 28 ft 22 kts 172°
2026-05-06 07:41 -20.25830 -40.28137 30 ft 21 kts 172°
2026-05-06 07:41 -20.25976 -40.28115 31 ft 21 kts 172°
2026-05-06 07:41 -20.26123 -40.28095 31 ft 21 kts 173°
2026-05-06 07:42 -20.26259 -40.28075 34 ft 17 kts 172°
2026-05-06 07:42 -20.26368 -40.28059 35 ft 16 kts 172°
2026-05-06 07:42 -20.26437 -40.28050 35 ft 5 kts 187°
2026-05-06 07:42 -20.26452 -40.28087 35 ft 6 kts 261°
2026-05-06 07:43 -20.26459 -40.28136 35 ft 7 kts 262°
2026-05-06 07:43 -20.26463 -40.28164 35 ft 1 kts 262°
2026-05-06 07:43 -20.26464 -40.28177 35 ft 0 kts 263°